STARLINK-36218

Last updated on Sun Aug 09 2026 00:02:04 GMT+0000 (Coordinated Universal Time)

1 69968U 26157AB 26220.58335648 -.00037405 00000+0 -66747-3 0 9996 2 69968 53.1596 174.5167 0001374 102.6375 179.4397 15.49317573 5739
UTC large
Height (km)
Speed (km/s)
/
Latitude / Longitude
Inclination (degrees)
Orbital Period (minutes)
Azimuth
Elevation
Range (km)
Doppler Factor

Next 0 passes for location: London (51.5072 / 0.1276)

No passes found over London.
STARLINK-36218